Tracking 23726 objects as of 24-Sep-2021
HD Live streaming from Space Station
objects crossing your sky now

ONEWEB-0316

Track ONEWEB-0316 now!
10-day predictions
ONEWEB-0316 is classified as:


NORAD ID: 49102
Int'l Code: 2021-075AD
Perigee: 518.6 km
Apogee: 546.5 km
Inclination: 87.3 °
Period: 95.1 minutes
Semi major axis: 6903 km
RCS: Unknown
Launch date: August 21, 2021
Source: United Kingdom (UK)
Launch site: TYURATAM MISSILE AND SPACE COMPLEX (TTMTR)
aabbcc
Your satellite tracking list
Your tracking list is empty




NASA's NSSDC Master Catalog

Two Line Element Set (TLE):
1 49102U 21075AD  21267.16667824 -.00827253  00000-0 -49831-1 0  9994
2 49102  87.2978 354.5524 0020233 163.1743  68.3599 15.13538441  6395
Source of the keplerian elements: AFSPC